Flag for Marshall Islands Weather past 2 weeks in Majuro, Marshall Islands

Now
87 °F

Scattered clouds.


Feels Like: 98 °F
Forecast: 80 / 85 °F
Wind: 7 mph from Southeast

Location: Majuro Atoll

Current Time: Jul 28, 2015 at 2:07:04 PM

Latest Report: Jul 28, 2015 at 12:51 PM


Visibility: 20 mi

Pressure: 29.73 "Hg

Humidity: 72%

Dew point: 77 °F

Location of MajuroLocation

Historic Weather in Majuro — Graph

°F

Majuro temperature yesterday

Maximum temperature yesterday: 86 °F (at 12:50 PM)
Minimum temperature yesterday: 80 °F (at 3:51 AM)
Average temperature yesterday: 83 °F

Past Weeks' High & Low Weather Summary

 TemperatureHumidityPressure
High88 °F (Jul 17, 2:59 PM)91% (Jul 14, 7:52 AM)29.92 "Hg (Jul 14, 7:52 AM)
Low69 °F (Jul 19, 7:54 AM)0% (Jul 19, 7:54 AM)29.72 "Hg (Jul 15, 5:58 PM)
Average83 °F81%29.83 "Hg
* Reported Jul 13 12:53 PM — Jul 28 12:51 PM, Majuro, Weather by CustomWeather, © 2015

Note: Actual official high and low records may vary slightly from our data, if they occured in-between our weather recording intervals... More about our weather records

Advertising

Majuro weather history for previous 24 hours

 ConditionsComfort  
Time TempWeatherWind HumidityBarometerVisibility
12:51 PM
Tue, Jul 28
87 °FScattered clouds.7 mph72%29.73 "Hg20 mi
11:50 AM87 °FScattered clouds.6 mph72%29.75 "Hg20 mi
10:52 AM87 °FPassing clouds.8 mph74%29.78 "Hg20 mi
9:50 AM86 °FScattered clouds.6 mph77%29.78 "Hg15 mi
8:50 AM85 °FPassing clouds.6 mph76%29.78 "Hg20 mi
7:51 AM84 °FPassing clouds.6 mph78%29.77 "Hg20 mi
6:53 AM82 °FPassing clouds.No wind81%29.75 "Hg15 mi
5:54 AM82 °FPassing clouds.5 mph82%29.73 "Hg15 mi
4:53 AM82 °FPassing clouds.3 mph82%29.73 "Hg15 mi
3:51 AM82 °FPassing clouds.3 mph81%29.73 "Hg15 mi
2:52 AM82 °FPassing clouds.3 mph83%29.74 "Hg15 mi
1:51 AM83 °FPassing clouds.2 mph82%29.75 "Hg15 mi
12:52 AM83 °FPassing clouds.3 mph82%29.77 "Hg15 mi
11:53 PM
Mon, Jul 27
83 °FPassing clouds.5 mph81%29.79 "Hg15 mi
10:51 PM83 °FPassing clouds.5 mph80%29.81 "Hg15 mi
9:52 PM83 °FPassing clouds.3 mph80%29.80 "Hg15 mi
8:52 PM83 °FPassing clouds.No wind80%29.79 "Hg15 mi
7:54 PM84 °FScattered clouds.No wind80%29.77 "Hg15 mi
6:58 PM84 °FScattered clouds.No wind79%29.75 "Hg15 mi
5:54 PM85 °FScattered clouds.No wind78%29.73 "Hg15 mi
4:50 PM85 °FPartly sunny.6 mph77%29.72 "Hg20 mi
3:50 PM86 °FBroken clouds.5 mph76%29.72 "Hg20 mi
2:52 PM86 °FOvercast.6 mph76%29.73 "Hg20 mi
Weather by CustomWeather, © 2015

See weather overviewHow to use our weather pages